Regional Weather Roundup
Issued by NWS

Home | Current Version | Previous Version | Text Only | Print | Product List | Glossary On
Versions: 1 2 3 4 5 6 7 8 9 10 11 12 13 14 15 16 17 18 19 20 21 22 23 24 25 26 27 28 29 30 31 32 33 34 35 36 37 38 39 40 41 42 43 44 45 46 47 48 49 50
000
ASUS43 KLMK 291410
RWRKY
KENTUCKY REGIONAL WEATHER ROUNDUP
NATIONAL WEATHER SERVICE LOUISVILLE KY
1000 AM EDT WED MAR 29 2017

NOTE "FAIR" INDICATES FEW OR NO CLOUDS BELOW 12,000 FEET
WITH NO SIGNIFICANT WEATHER AND/OR OBSTRUCTIONS TO VISIBILITY.

KYZ001>023-026-027-061>063-070>075-291500-
WESTERN AND SOUTH CENTRAL KENTUCKY

CITY           SKY/WX    TMP DP  RH WIND       PRES   REMARKS
PADUCAH        MOSUNNY   58  52  80 E14       30.00S
HENDERSON      CLOUDY    52  48  87 E12G17    30.05F
OWENSBORO      CLOUDY    57  50  77 E15       30.07F
HOPKINSVILLE   SUNNY     57  56  95 E14       30.03S
BOWLING GREEN  SUNNY     59  53  80 E12       30.08S
GLASGOW        SUNNY     57  54  89 E9        30.09S FOG
$$

KYZ024-025-028>034-038-045-046-053-291500-
NORTH CENTRAL KENTUCKY

CITY           SKY/WX    TMP DP  RH WIND       PRES   REMARKS
LOUISVILLE/SDF CLOUDY    57  46  66 NE10      30.13R
LOUISVILLE/LOU CLOUDY    55  46  71 NE10      30.14R
FORT KNOX      PTSUNNY   55  50  82 E10       30.10R
$$

KYZ035>037-039>044-047>052-055>060-089>105-291500-
NORTHEAST KENTUCKY

CITY           SKY/WX    TMP DP  RH WIND       PRES   REMARKS
LEXINGTON      CLOUDY    52  45  77 NE10      30.15R
COVINGTON      MOSUNNY   48  38  68 NE13      30.18R
FRANKFORT      CLOUDY    51  43  74 NE9       30.15R
$$

KYZ054-064>069-076>088-106>120-291500-
SOUTHEAST KENTUCKY

CITY           SKY/WX    TMP DP  RH WIND       PRES   REMARKS
JACKSON        CLOUDY    53  48  83 CALM      30.13R
LONDON         CLOUDY    56  50  80 NE6       30.11S
SOMERSET       CLOUDY    57  50  77 E8        30.12S
MIDDLESBORO    SUNNY     57  53  85 CALM      30.11S
MONTICELLO     MOSUNNY   60  54  80 VRB3      30.11S
$$




USA.gov is the U.S. government's official web portal to all federal, state and local government web resources and services.